Weather History for KAZE - October, 2012

Change the Weather History Date:

Friday, October 12, 2012

  Actual Average Record
Temperature  
Mean Temperature 70 °F -  
Max Temperature 85 °F 73 °F 89 °F (2014)
Min Temperature 56 °F 38 °F 57 °F (2013)
Cooling Degree Days 6    
Growing Degree Days 20 (Base 50)    
Moisture  
Dew Point 65 °F    
Average Humidity 67    
Maximum Humidity 94    
Minimum Humidity 50    
Precipitation  
Precipitation 0.00 in - - ()
Sea Level Pressure  
Sea Level Pressure 30.20 in    
Wind  
Wind Speed 1 mph ()    
Max Wind Speed 9 mph    
Max Gust Speed -    
Visibility 8.8 miles    
Events      
Averages and records for this station are not official NWS values.
T = Trace of Precipitation, MM = Missing Value Source: Averaged Metar Reports

Daily Weather History Graph

Daily Weather History Graph

Search for Another Location

Airport or City:

Trip Planner

Search our weather history database for the weather conditions in past years. The results will help you decide how hot, cold, wet, or windy it might be!

Date:

Astronomy

Oct. 12, 2012 Rise Set
Actual Time 7:32 AM EDT 7:01 PM EDT
Civil Twilight 7:07 AM EDT 7:25 PM EDT
Nautical Twilight 6:39 AM EDT 7:54 PM EDT
Astronomical Twilight 6:11 AM EDT 8:22 PM EDT
Moon 4:23 AM EDT (10/12) 5:02 PM EDT (10/12)
Length of Visible Light 12h 18m
Length of Day
11h 29m
Waning Crescent, 11% of the Moon is Illuminated
Oct 12
Waning Crescent
Oct 15
New
Oct 21
First Quarter
Oct 29
Full
Nov 6
Last Quarter

Hourly Weather History & Observations

Time (EDT) Temp. Heat Index Dew Point Humidity Pressure Visibility Wind Dir Wind Speed Gust Speed Precip Events Conditions
1:15 AM 62.2 °F - - N/A% 30.22 in 10.0 mi Calm Calm - N/A   Clear
1:35 AM 61.2 °F - - N/A% 30.22 in 10.0 mi Calm Calm - N/A   Clear
1:55 AM 61.2 °F - - N/A% 30.22 in 7.0 mi Calm Calm - N/A   Clear
2:35 AM 59.7 °F - - N/A% 30.21 in 10.0 mi Calm Calm - N/A   Clear
2:55 AM 59.2 °F - - N/A% 30.21 in 7.0 mi Calm Calm - N/A   Clear
3:15 AM 59.0 °F - - N/A% 30.20 in 7.0 mi Calm Calm - N/A   Clear
3:35 AM 58.5 °F - - N/A% 30.20 in 7.0 mi Calm Calm - N/A   Clear
3:55 AM 58.5 °F - - N/A% 30.19 in 4.0 mi Calm Calm - N/A   Haze
4:15 AM 57.7 °F - - N/A% 30.19 in 5.0 mi Calm Calm - N/A   Haze
4:35 AM 58.1 °F - - N/A% 30.19 in 4.0 mi Calm Calm - N/A   Haze
4:55 AM 58.1 °F - - N/A% 30.19 in 7.0 mi Calm Calm - N/A   Clear
5:15 AM 58.1 °F - - N/A% 30.19 in 3.0 mi Calm Calm - N/A   Clear
5:35 AM 57.9 °F - - N/A% 30.19 in 4.0 mi Calm Calm - N/A   Haze
5:55 AM 57.4 °F - - N/A% 30.20 in 7.0 mi Calm Calm - N/A   Clear
6:15 AM 57.4 °F - - N/A% 30.21 in 7.0 mi Calm Calm - N/A   Clear
6:35 AM 57.9 °F - - N/A% 30.22 in 10.0 mi Calm Calm - N/A   Clear
6:55 AM 57.7 °F - - N/A% 30.22 in 10.0 mi Calm Calm - N/A   Clear
7:15 AM 57.4 °F - - N/A% 30.22 in 5.0 mi Calm Calm - N/A   Haze
7:35 AM 56.7 °F - - N/A% 30.22 in 4.0 mi Calm Calm - N/A   Haze
7:55 AM 56.7 °F - - N/A% 30.22 in 4.0 mi Calm Calm - N/A   Haze
8:15 AM 57.7 °F - - N/A% 30.23 in 7.0 mi Calm Calm - N/A   Clear
8:35 AM 59.5 °F - - N/A% 30.24 in 10.0 mi Calm Calm - N/A   Clear
8:55 AM 61.5 °F - - N/A% 30.24 in 10.0 mi Calm Calm - N/A   Clear
9:15 AM 64.0 °F - - N/A% 30.25 in 10.0 mi Calm Calm - N/A   Clear
9:55 AM 67.8 °F - 66.0 °F 94% 30.25 in 10.0 mi Calm Calm - N/A   Clear
10:15 AM 69.3 °F - 66.0 °F 89% 30.25 in 10.0 mi Calm Calm - N/A   Clear
10:35 AM 71.1 °F - 65.8 °F 84% 30.25 in 10.0 mi Calm Calm - N/A   Clear
10:55 AM 73.0 °F - 65.3 °F 77% 30.25 in 10.0 mi Calm Calm - N/A   Clear
11:15 AM 74.7 °F - 64.2 °F 70% 30.25 in 10.0 mi Calm Calm - N/A   Clear
11:35 AM 76.3 °F - 63.9 °F 65% 30.24 in 10.0 mi Calm Calm - N/A   Clear
11:55 AM 76.5 °F - 63.7 °F 64% 30.24 in 10.0 mi Calm Calm - N/A   Clear
12:15 PM 77.5 °F - 64.4 °F 64% 30.24 in 10.0 mi Calm Calm - N/A   Clear
12:55 PM 80.1 °F 81.4 °F 62.8 °F 55% 30.22 in 10.0 mi NNW 9.2 mph - N/A   Clear
1:15 PM 80.8 °F 82.1 °F 63.3 °F 55% 30.21 in 10.0 mi WNW 3.5 mph - N/A   Clear
1:35 PM 81.5 °F 82.9 °F 63.7 °F 55% 30.20 in 10.0 mi NW 4.6 mph - N/A   Clear
1:55 PM 82.0 °F 83.4 °F 63.7 °F 54% 30.19 in 10.0 mi North 8.1 mph - N/A   Clear
2:35 PM 83.1 °F 84.6 °F 64.4 °F 53% 30.17 in 10.0 mi WSW 5.8 mph - N/A   Clear
2:55 PM 83.5 °F 85.3 °F 65.1 °F 54% 30.16 in 10.0 mi NW 3.5 mph - N/A   Clear
3:35 PM 84.7 °F 86.6 °F 65.5 °F 52% 30.14 in 10.0 mi West 4.6 mph - N/A   Scattered Clouds
3:55 PM 85.1 °F 86.9 °F 65.1 °F 51% 30.14 in 10.0 mi WNW 9.2 mph - N/A   Scattered Clouds
4:15 PM 85.1 °F 86.9 °F 65.1 °F 51% 30.14 in 10.0 mi NNW 6.9 mph - N/A   Scattered Clouds
4:55 PM 85.6 °F 87.4 °F 64.9 °F 50% 30.14 in 10.0 mi NW 4.6 mph - N/A   Scattered Clouds
5:15 PM 85.3 °F 86.8 °F 64.8 °F 50% 30.14 in 10.0 mi NNW 5.8 mph - N/A   Scattered Clouds
5:35 PM 84.7 °F 86.3 °F 64.8 °F 51% 30.15 in 10.0 mi NNW 3.5 mph - N/A   Scattered Clouds
5:55 PM 83.7 °F 85.3 °F 64.9 °F 53% 30.15 in 10.0 mi NNW 3.5 mph - N/A   Clear
6:35 PM 82.2 °F 84.0 °F 64.9 °F 56% 30.15 in 10.0 mi NNW 3.5 mph - N/A   Clear
7:15 PM 78.1 °F - 66.6 °F 68% 30.16 in 10.0 mi Calm Calm - N/A   Clear
7:35 PM 74.5 °F - 67.3 °F 78% 30.17 in 10.0 mi Calm Calm - N/A   Clear
7:55 PM 73.2 °F - 67.3 °F 82% 30.17 in 10.0 mi Calm Calm - N/A   Clear
8:15 PM 72.5 °F - 67.1 °F 83% 30.17 in 10.0 mi North 3.5 mph - N/A   Clear
8:55 PM 72.5 °F - 65.5 °F 79% 30.18 in 10.0 mi Calm Calm - N/A   Clear
9:15 PM 72.7 °F - 65.5 °F 78% 30.19 in 10.0 mi NNE 3.5 mph - N/A   Clear
9:35 PM 72.3 °F - 65.1 °F 78% 30.19 in 10.0 mi Calm Calm - N/A   Clear
9:55 PM 71.1 °F - 66.7 °F 86% 30.20 in 10.0 mi North 3.5 mph - N/A   Clear
10:15 PM 72.0 °F - 64.8 °F 78% 30.21 in 10.0 mi North 5.8 mph - N/A   Clear
10:55 PM 72.0 °F - 63.7 °F 75% 30.22 in 10.0 mi North 3.5 mph - N/A   Clear
11:15 PM 71.8 °F - 63.5 °F 75% 30.22 in 10.0 mi Calm Calm - N/A   Clear